| time (UTC) | temp C | wind direction | speed KPH | gust KPH | rain 1hr cm | rain 24hr cm | rain mn cm | humidity % | barometer mb |
| 20260507140536 | 20 | 141 | 3.2 | 9.7 | 0.03 | 0.05 | 0.05 | 55 | 1013.2 |
| 20260507140035 | 20 | 131 | 1.6 | 9.7 | 0.03 | 0.05 | 0.05 | 52 | 1013.3 |
| 20260507135525 | 20 | 132 | 1.6 | 9.7 | 0.03 | 0.05 | 0.05 | 54 | 1013.5 |
| 20260507135025 | 20 | 155 | 1.6 | 11.3 | 0.00 | 0.05 | 0.03 | 55 | 1013.5 |
| 20260507134526 | 20 | 133 | 1.6 | 11.3 | 0.00 | 0.05 | 0.03 | 55 | 1013.3 |
| 20260507134027 | 20 | 125 | 1.6 | 6.4 | 0.00 | 0.05 | 0.03 | 55 | 1013.3 |
| 20260507133529 | 19 | 126 | 1.6 | 8.0 | 0.00 | 0.05 | 0.03 | 55 | 1013.5 |
| 20260507133522 | 19 | 123 | 1.6 | 8.0 | 0.00 | 0.05 | 0.03 | 58 | 1013.4 |
| 20260507132523 | 19 | 136 | 1.6 | 6.4 | 0.00 | 0.05 | 0.03 | 56 | 1013.5 |
| 20260507132024 | 19 | 142 | 1.6 | 16.1 | 0.00 | 0.05 | 0.03 | 55 | 1013.5 |
| 20260507131512 | 19 | 134 | 1.6 | 16.1 | 0.00 | 0.05 | 0.03 | 55 | 1013.6 |
| 20260507131015 | 20 | 107 | 1.6 | 9.7 | 0.00 | 0.05 | 0.03 | 55 | 1013.5 |
| 20260507130513 | 20 | 126 | 1.6 | 9.7 | 0.00 | 0.05 | 0.03 | 54 | 1013.8 |
| 20260507130001 | 20 | 117 | 0.0 | 9.7 | 0.00 | 0.05 | 0.03 | 58 | 1013.8 |
| 20260507125454 | 19 | 119 | 1.6 | 4.8 | 0.00 | 0.05 | 0.03 | 55 | 1013.8 |
| 20260507124940 | 19 | 118 | 1.6 | 4.8 | 0.00 | 0.05 | 0.03 | 54 | 1013.9 |
| 20260507124421 | 20 | 146 | 1.6 | 6.4 | 0.00 | 0.05 | 0.03 | 56 | 1013.9 |
| 20260507123919 | 20 | 128 | 1.6 | 11.3 | 0.00 | 0.05 | 0.03 | 56 | 1014.0 |
| 20260507123418 | 20 | 138 | 1.6 | 11.3 | 0.00 | 0.05 | 0.03 | 57 | 1013.9 |
| 20260507122916 | 19 | 193 | 1.6 | 11.3 | 0.00 | 0.05 | 0.03 | 57 | 1013.9 |
| 20260507122419 | 20 | 133 | 1.6 | 11.3 | 0.00 | 0.05 | 0.03 | 54 | 1013.9 |
| 20260507121911 | 20 | 131 | 0.0 | 6.4 | 0.00 | 0.05 | 0.03 | 57 | 1014.0 |
| 20260507121411 | 19 | 119 | 1.6 | 9.7 | 0.00 | 0.05 | 0.03 | 59 | 1014.0 |
| 20260507120905 | 18 | 128 | 3.2 | 11.3 | 0.00 | 0.05 | 0.03 | 57 | 1014.1 |
| 20260507120405 | 18 | 118 | 3.2 | 12.9 | 0.00 | 0.05 | 0.03 | 58 | 1014.1 |
| 20260507115905 | 18 | 123 | 3.2 | 14.5 | 0.00 | 0.05 | 0.03 | 60 | 1014.0 |
| 20260507115358 | 18 | 130 | 4.8 | 14.5 | 0.00 | 0.05 | 0.03 | 55 | 1014.1 |
| 20260507114855 | 19 | 130 | 4.8 | 14.5 | 0.00 | 0.05 | 0.03 | 60 | 1014.1 |
| 20260507114353 | 19 | 134 | 6.4 | 20.9 | 0.00 | 0.05 | 0.03 | 59 | 1014.1 |
| 20260507114123 | 18 | 136 | 4.8 | 20.9 | 0.00 | 0.05 | 0.03 | 58 | 1014.1 |
| 20260507113353 | 18 | 117 | 3.2 | 11.3 | 0.00 | 0.05 | 0.03 | 60 | 1014.1 |
| 20260507113114 | 18 | 128 | 3.2 | 11.3 | 0.00 | 0.05 | 0.03 | 58 | 1014.2 |
| 20260507112343 | 19 | 121 | 4.8 | 16.1 | 0.00 | 0.05 | 0.03 | 60 | 1014.4 |
| 20260507111841 | 19 | 130 | 3.2 | 16.1 | 0.00 | 0.05 | 0.03 | 59 | 1014.3 |
| 20260507111341 | 19 | 128 | 1.6 | 16.1 | 0.00 | 0.05 | 0.03 | 59 | 1014.4 |
| 20260507110841 | 18 | 125 | 1.6 | 16.1 | 0.00 | 0.05 | 0.03 | 62 | 1014.4 |
| 20260507110333 | 18 | 101 | 1.6 | 9.7 | 0.00 | 0.05 | 0.03 | 63 | 1014.4 |
| 20260507105826 | 18 | 81 | 1.6 | 8.0 | 0.00 | 0.05 | 0.03 | 58 | 1014.4 |
| 20260507105553 | 18 | 127 | 1.6 | 12.9 | 0.00 | 0.05 | 0.03 | 61 | 1014.6 |
| 20260507104823 | 18 | 132 | 3.2 | 12.9 | 0.00 | 0.05 | 0.03 | 61 | 1014.5 |
| 20260507104313 | 18 | 132 | 1.6 | 11.3 | 0.00 | 0.05 | 0.03 | 64 | 1014.6 |
| 20260507103813 | 18 | 128 | 1.6 | 11.3 | 0.00 | 0.05 | 0.03 | 67 | 1014.5 |
| 20260507103313 | 18 | 134 | 3.2 | 11.3 | 0.00 | 0.05 | 0.03 | 63 | 1014.5 |
| 20260507102807 | 17 | 136 | 3.2 | 11.3 | 0.00 | 0.05 | 0.03 | 62 | 1014.6 |
| 20260507102243 | 17 | 121 | 3.2 | 9.7 | 0.00 | 0.05 | 0.03 | 64 | 1014.6 |
| 20260507101741 | 17 | 146 | 1.6 | 8.0 | 0.00 | 0.05 | 0.03 | 66 | 1014.6 |
| 20260507101241 | 17 | 134 | 1.6 | 9.7 | 0.00 | 0.05 | 0.03 | 67 | 1014.6 |
| 20260507100735 | 17 | 104 | 1.6 | 9.7 | 0.00 | 0.05 | 0.03 | 66 | 1014.6 |
| 20260507100227 | 17 | 113 | 1.6 | 11.3 | 0.00 | 0.05 | 0.03 | 68 | 1014.6 |
| 20260507095719 | 17 | 114 | 1.6 | 11.3 | 0.00 | 0.05 | 0.03 | 67 | 1014.6 |
| 20260507095221 | 17 | 144 | 0.0 | 9.7 | 0.00 | 0.05 | 0.03 | 70 | 1014.7 |
| 20260507094715 | 16 | 144 | 0.0 | 6.4 | 0.00 | 0.05 | 0.03 | 71 | 1014.7 |
| 20260507094438 | 16 | 139 | 1.6 | 9.7 | 0.00 | 0.05 | 0.03 | 71 | 1014.7 |
| 20260507093645 | 16 | 132 | 1.6 | 11.3 | 0.00 | 0.05 | 0.03 | 70 | 1014.8 |
| 20260507093354 | 16 | 128 | 3.2 | 16.1 | 0.00 | 0.05 | 0.03 | 70 | 1014.7 |
| 20260507092614 | 16 | 130 | 3.2 | 16.1 | 0.00 | 0.05 | 0.03 | 69 | 1014.7 |
| 20260507092113 | 16 | 133 | 1.6 | 16.1 | 0.00 | 0.05 | 0.03 | 72 | 1014.8 |
| 20260507091613 | 16 | 134 | 1.6 | 14.5 | 0.00 | 0.05 | 0.03 | 73 | 1014.6 |
| 20260507091105 | 15 | 123 | 1.6 | 11.3 | 0.00 | 0.05 | 0.03 | 73 | 1014.8 |
| 20260507090557 | 15 | 131 | 1.6 | 9.7 | 0.00 | 0.05 | 0.03 | 73 | 1014.6 |
| 20260507090051 | 15 | 179 | 1.6 | 9.7 | 0.00 | 0.05 | 0.03 | 73 | 1014.6 |
| 20260507085552 | 15 | 132 | 0.0 | 6.4 | 0.00 | 0.05 | 0.03 | 74 | 1014.6 |
| 20260507085046 | 15 | 132 | 1.6 | 9.7 | 0.00 | 0.05 | 0.03 | 74 | 1014.8 |
| 20260507084537 | 15 | 130 | 1.6 | 9.7 | 0.00 | 0.05 | 0.03 | 75 | 1014.6 |
| 20260507084303 | 15 | 170 | 0.0 | 6.4 | 0.00 | 0.05 | 0.03 | 75 | 1014.6 |
| 20260507083531 | 15 | 182 | 1.6 | 14.5 | 0.00 | 0.05 | 0.03 | 75 | 1014.5 |
| 20260507083243 | 15 | 127 | 1.6 | 14.5 | 0.00 | 0.05 | 0.03 | 75 | 1014.5 |
| 20260507082510 | 15 | 127 | 1.6 | 9.7 | 0.00 | 0.05 | 0.03 | 77 | 1014.5 |
| 20260507082009 | 14 | 130 | 1.6 | 8.0 | 0.00 | 0.05 | 0.03 | 78 | 1014.4 |
| 20260507081503 | 14 | 130 | 1.6 | 11.3 | 0.00 | 0.05 | 0.03 | 79 | 1014.4 |
| 20260507080949 | 14 | 127 | 3.2 | 11.3 | 0.00 | 0.05 | 0.03 | 79 | 1014.4 |
| 20260507080449 | 13 | 121 | 3.2 | 11.3 | 0.00 | 0.05 | 0.03 | 80 | 1014.4 |
| 20260507080221 | 13 | 120 | 3.2 | 12.9 | 0.00 | 0.05 | 0.03 | 79 | 1014.4 |
| 20260507075449 | 13 | 120 | 1.6 | 12.9 | 0.00 | 0.05 | 0.03 | 80 | 1014.4 |
| 20260507074949 | 13 | 128 | 1.6 | 9.7 | 0.00 | 0.05 | 0.03 | 82 | 1014.3 |
| 20260507074441 | 13 | 123 | 0.0 | 9.7 | 0.00 | 0.05 | 0.03 | 82 | 1014.3 |
| 20260507073919 | 13 | 124 | 1.6 | 9.7 | 0.00 | 0.05 | 0.03 | 83 | 1014.2 |
| 20260507073644 | 13 | 124 | 3.2 | 9.7 | 0.00 | 0.05 | 0.03 | 83 | 1014.3 |
| 20260507072859 | 12 | 124 | 1.6 | 9.7 | 0.00 | 0.05 | 0.03 | 86 | 1014.2 |
| 20260507072359 | 12 | 116 | 1.6 | 8.0 | 0.00 | 0.05 | 0.03 | 88 | 1014.2 |
| 20260507071857 | 12 | 116 | 1.6 | 8.0 | 0.00 | 0.05 | 0.03 | 89 | 1014.1 |
| 20260507071356 | 12 | 115 | 0.0 | 6.4 | 0.00 | 0.05 | 0.03 | 90 | 1014.0 |
| 20260507070855 | 12 | 115 | 1.6 | 8.0 | 0.00 | 0.05 | 0.03 | 91 | 1014.1 |
| 20260507070321 | 11 | 115 | 1.6 | 8.0 | 0.00 | 0.05 | 0.03 | 92 | 1014.1 |
| 20260507065819 | 11 | 115 | 1.6 | 6.4 | 0.00 | 0.05 | 0.03 | 92 | 1014.1 |
| 20260507065547 | 11 | 115 | 0.0 | 6.4 | 0.00 | 0.05 | 0.03 | 93 | 1014.0 |
| 20260507064813 | 11 | 115 | 1.6 | 8.0 | 0.00 | 0.05 | 0.03 | 93 | 1014.1 |
| 20260507064806 | 11 | 115 | 1.6 | 8.0 | 0.00 | 0.05 | 0.03 | 94 | 1014.0 |
| 20260507063739 | 11 | 107 | 0.0 | 4.8 | 0.00 | 0.05 | 0.03 | 94 | 1014.0 |
| 20260507063508 | 11 | 73 | 0.0 | 0.0 | 0.00 | 0.05 | 0.03 | 94 | 1014.0 |
| 20260507062736 | 11 | 73 | 0.0 | 0.0 | 0.00 | 0.05 | 0.03 | 95 | 1014.0 |
| 20260507062504 | 10 | 73 | 0.0 | 0.0 | 0.00 | 0.05 | 0.03 | 94 | 1013.9 |
| 20260507061720 | 10 | 73 | 0.0 | 0.0 | 0.00 | 0.05 | 0.03 | 94 | 1013.9 |
| 20260507061448 | 10 | 73 | 0.0 | 0.0 | 0.03 | 0.05 | 0.03 | 94 | 1013.9 |
| 20260507060717 | 10 | 73 | 0.0 | 0.0 | 0.03 | 0.05 | 0.03 | 94 | 1014.0 |
| 20260507060447 | 10 | 73 | 0.0 | 0.0 | 0.03 | 0.05 | 0.03 | 94 | 1013.9 |
| 20260507055719 | 10 | 73 | 0.0 | 0.0 | 0.03 | 0.05 | 0.03 | 94 | 1013.9 |
| 20260507055213 | 9 | 73 | 0.0 | 0.0 | 0.03 | 0.05 | 0.03 | 94 | 1013.8 |
| 20260507054937 | 9 | 73 | 0.0 | 0.0 | 0.03 | 0.05 | 0.03 | 94 | 1013.8 |
| 20260507054129 | 9 | 73 | 0.0 | 0.0 | 0.03 | 0.05 | 0.03 | 94 | 1013.7 |
| 20260507053619 | 9 | 73 | 0.0 | 0.0 | 0.03 | 0.05 | 0.03 | 94 | 1013.7 |
| 20260507053119 | 9 | 73 | 0.0 | 0.0 | 0.03 | 0.05 | 0.03 | 93 | 1013.8 |
| 20260507052621 | 9 | 73 | 0.0 | 0.0 | 0.03 | 0.05 | 0.03 | 93 | 1013.7 |
| 20260507052114 | 9 | 73 | 0.0 | 0.0 | 0.03 | 0.05 | 0.03 | 93 | 1013.6 |
| 20260507051611 | 9 | 73 | 0.0 | 0.0 | 0.00 | 0.05 | 0.03 | 93 | 1013.5 |
| 20260507051059 | 9 | 73 | 0.0 | 0.0 | 0.00 | 0.05 | 0.00 | 93 | 1013.5 |
| 20260507050549 | 9 | 73 | 0.0 | 0.0 | 0.00 | 0.05 | 0.00 | 93 | 1013.4 |
| 20260507050041 | 9 | 73 | 0.0 | 0.0 | 0.00 | 0.05 | 0.00 | 93 | 1013.5 |
| 20260507045529 | 9 | 73 | 0.0 | 0.0 | 0.00 | 0.05 | 0.00 | 92 | 1013.5 |
| 20260507045028 | 10 | 73 | 0.0 | 0.0 | 0.00 | 0.05 | 0.00 | 92 | 1013.4 |
| 20260507044517 | 10 | 73 | 0.0 | 0.0 | 0.00 | 0.05 | 0.00 | 92 | 1013.4 |
| 20260507044009 | 10 | 73 | 0.0 | 0.0 | 0.00 | 0.05 | 0.00 | 92 | 1013.4 |
| 20260507043509 | 10 | 73 | 0.0 | 0.0 | 0.00 | 0.05 | 0.00 | 93 | 1013.3 |
| 20260507043218 | 10 | 73 | 0.0 | 0.0 | 0.00 | 0.05 | 0.00 | 93 | 1013.3 |
| 20260507042414 | 10 | 73 | 0.0 | 0.0 | 0.00 | 0.05 | 0.00 | 93 | 1013.2 |
| 20260507042112 | 10 | 73 | 0.0 | 0.0 | 0.00 | 0.05 | 0.00 | 93 | 1013.3 |
| 20260507041320 | 10 | 73 | 0.0 | 0.0 | 0.00 | 0.05 | 0.00 | 93 | 1013.3 |
| 20260507040811 | 10 | 73 | 0.0 | 0.0 | 0.00 | 0.05 | 0.00 | 93 | 1013.4 |
| 20260507040249 | 10 | 73 | 0.0 | 0.0 | 0.00 | 0.05 | 0.00 | 93 | 1013.4 |
| 20260507035719 | 10 | 73 | 0.0 | 0.0 | 0.00 | 0.05 | 0.00 | 93 | 1013.3 |
| 20260507035219 | 10 | 73 | 0.0 | 0.0 | 0.00 | 0.05 | 0.00 | 93 | 1013.3 |
| 20260507034657 | 10 | 73 | 0.0 | 0.0 | 0.00 | 0.05 | 0.00 | 93 | 1013.2 |
| 20260507034121 | 10 | 73 | 0.0 | 0.0 | 0.00 | 0.05 | 0.00 | 93 | 1013.2 |
| 20260507033619 | 10 | 73 | 0.0 | 0.0 | 0.00 | 0.05 | 0.00 | 92 | 1013.3 |
| 20260507033119 | 10 | 73 | 0.0 | 0.0 | 0.00 | 0.05 | 0.00 | 92 | 1013.2 |
| 20260507032612 | 10 | 73 | 0.0 | 0.0 | 0.00 | 0.05 | 0.00 | 92 | 1013.2 |
| 20260507032112 | 10 | 73 | 0.0 | 0.0 | 0.00 | 0.05 | 0.00 | 92 | 1013.2 |
| 20260507031609 | 10 | 73 | 0.0 | 0.0 | 0.00 | 0.05 | 0.00 | 92 | 1013.2 |
| 20260507031027 | 10 | 73 | 0.0 | 0.0 | 0.00 | 0.05 | 0.00 | 92 | 1013.2 |
| 20260507030524 | 10 | 73 | 0.0 | 0.0 | 0.00 | 0.05 | 0.00 | 92 | 1013.2 |
| 20260507030519 | 10 | 73 | 0.0 | 0.0 | 0.00 | 0.05 | 0.00 | 92 | 1013.1 |
| 20260507025511 | 10 | 73 | 0.0 | 0.0 | 0.00 | 0.05 | 0.00 | 92 | 1013.2 |
| 20260507025001 | 10 | 73 | 0.0 | 0.0 | 0.00 | 0.05 | 0.00 | 92 | 1013.1 |
| 20260507024447 | 10 | 73 | 0.0 | 0.0 | 0.00 | 0.05 | 0.00 | 92 | 1013.1 |
| 20260507023933 | 10 | 73 | 0.0 | 0.0 | 0.00 | 0.05 | 0.00 | 92 | 1013.1 |
| 20260507023424 | 11 | 73 | 0.0 | 0.0 | 0.00 | 0.05 | 0.00 | 92 | 1013.2 |
| 20260507022923 | 11 | 73 | 0.0 | 0.0 | 0.00 | 0.05 | 0.00 | 92 | 1013.2 |
| 20260507022415 | 11 | 73 | 0.0 | 0.0 | 0.00 | 0.05 | 0.00 | 92 | 1013.2 |
| 20260507021908 | 11 | 73 | 0.0 | 0.0 | 0.00 | 0.05 | 0.00 | 92 | 1013.2 |
| 20260507021353 | 11 | 73 | 0.0 | 0.0 | 0.00 | 0.05 | 0.00 | 92 | 1013.2 |
| 20260507020851 | 11 | 73 | 0.0 | 0.0 | 0.00 | 0.05 | 0.00 | 92 | 1013.1 |
| 20260507020620 | 11 | 73 | 0.0 | 0.0 | 0.00 | 0.05 | 0.00 | 92 | 1013.1 |
| 20260507015835 | 11 | 73 | 0.0 | 0.0 | 0.00 | 0.05 | 0.00 | 92 | 1013.2 |
| 20260507015333 | 11 | 73 | 0.0 | 0.0 | 0.00 | 0.05 | 0.00 | 92 | 1013.2 |
| 20260507014833 | 11 | 73 | 0.0 | 0.0 | 0.00 | 0.05 | 0.00 | 92 | 1013.0 |
| 20260507014322 | 11 | 73 | 0.0 | 0.0 | 0.00 | 0.05 | 0.00 | 92 | 1013.1 |
| 20260507013814 | 11 | 73 | 0.0 | 0.0 | 0.00 | 0.05 | 0.00 | 92 | 1013.1 |
| 20260507013309 | 11 | 73 | 0.0 | 0.0 | 0.00 | 0.05 | 0.00 | 92 | 1013.1 |
| 20260507013005 | 11 | 73 | 0.0 | 0.0 | 0.00 | 0.05 | 0.00 | 92 | 1013.1 |
| 20260507012451 | 11 | 73 | 0.0 | 0.0 | 0.00 | 0.05 | 0.00 | 91 | 1013.2 |
| 20260507011713 | 11 | 73 | 0.0 | 0.0 | 0.00 | 0.05 | 0.00 | 92 | 1013.2 |
| 20260507011432 | 11 | 73 | 0.0 | 0.0 | 0.00 | 0.05 | 0.00 | 91 | 1013.1 |
| 20260507010931 | 11 | 73 | 0.0 | 0.0 | 0.00 | 0.05 | 0.00 | 91 | 1013.1 |
| 20260507010351 | 11 | 73 | 0.0 | 0.0 | 0.00 | 0.05 | 0.00 | 91 | 1013.3 |
| 20260507005605 | 11 | 73 | 0.0 | 0.0 | 0.00 | 0.05 | 0.00 | 91 | 1013.1 |
| 20260507005104 | 11 | 73 | 0.0 | 0.0 | 0.00 | 0.05 | 0.00 | 91 | 1013.1 |
| 20260507004548 | 11 | 73 | 0.0 | 0.0 | 0.00 | 0.05 | 0.00 | 91 | 1013.2 |
| 20260507004021 | 11 | 73 | 0.0 | 0.0 | 0.00 | 0.05 | 0.00 | 91 | 1013.2 |
| 20260507003515 | 11 | 73 | 0.0 | 0.0 | 0.00 | 0.05 | 0.00 | 91 | 1013.3 |
| 20260507002956 | 11 | 73 | 0.0 | 0.0 | 0.00 | 0.05 | 0.00 | 91 | 1013.3 |
| 20260507002652 | 11 | 73 | 0.0 | 0.0 | 0.00 | 0.05 | 0.00 | 91 | 1013.4 |
| 20260507002152 | 11 | 73 | 0.0 | 0.0 | 0.00 | 0.05 | 0.00 | 91 | 1013.2 |
| 20260507001646 | 11 | 73 | 0.0 | 0.0 | 0.00 | 0.05 | 0.00 | 91 | 1013.4 |
| 20260507000915 | 11 | 73 | 0.0 | 0.0 | 0.00 | 0.05 | 0.00 | 91 | 1013.5 |
| 20260507000416 | 11 | 73 | 0.0 | 0.0 | 0.00 | 0.05 | 0.00 | 91 | 1013.3 |
| 20260506235907 | 11 | 73 | 0.0 | 0.0 | 0.00 | 0.05 | 0.00 | 91 | 1013.3 |
| 20260506235315 | 11 | 73 | 0.0 | 0.0 | 0.00 | 0.05 | 0.00 | 91 | 1013.4 |
| 20260506234755 | 11 | 73 | 0.0 | 0.0 | 0.00 | 0.05 | 0.00 | 91 | 1013.4 |
| 20260506234250 | 11 | 73 | 0.0 | 0.0 | 0.00 | 0.05 | 0.00 | 91 | 1013.4 |
| 20260506233740 | 11 | 73 | 0.0 | 0.0 | 0.00 | 0.05 | 0.00 | 91 | 1013.4 |
| 20260506233231 | 11 | 73 | 0.0 | 0.0 | 0.00 | 0.05 | 0.00 | 91 | 1013.4 |
| 20260506232719 | 11 | 73 | 0.0 | 0.0 | 0.00 | 0.05 | 0.00 | 91 | 1013.5 |
| 20260506232220 | 11 | 73 | 0.0 | 0.0 | 0.00 | 0.05 | 0.00 | 91 | 1013.3 |
| 20260506231721 | 11 | 73 | 0.0 | 0.0 | 0.00 | 0.05 | 0.00 | 90 | 1013.3 |
| 20260506231219 | 11 | 73 | 0.0 | 0.0 | 0.00 | 0.05 | 0.00 | 90 | 1013.3 |
| 20260506230719 | 11 | 73 | 0.0 | 0.0 | 0.00 | 0.05 | 0.00 | 90 | 1013.3 |
| 20260506230213 | 11 | 73 | 0.0 | 0.0 | 0.00 | 0.05 | 0.00 | 90 | 1013.2 |
| 20260506225704 | 11 | 73 | 0.0 | 0.0 | 0.00 | 0.05 | 0.00 | 90 | 1013.4 |
| 20260506225150 | 11 | 73 | 0.0 | 0.0 | 0.00 | 0.05 | 0.00 | 90 | 1013.3 |
| 20260506224643 | 11 | 73 | 0.0 | 0.0 | 0.00 | 0.05 | 0.00 | 90 | 1013.4 |
| 20260506224119 | 12 | 73 | 0.0 | 0.0 | 0.00 | 0.05 | 0.00 | 90 | 1013.4 |
| 20260506224113 | 12 | 73 | 0.0 | 0.0 | 0.00 | 0.05 | 0.00 | 90 | 1013.3 |
| 20260506223104 | 12 | 73 | 0.0 | 0.0 | 0.00 | 0.05 | 0.00 | 90 | 1013.3 |
| 20260506222543 | 12 | 73 | 0.0 | 0.0 | 0.00 | 0.05 | 0.00 | 90 | 1013.3 |
| 20260506222312 | 12 | 73 | 0.0 | 0.0 | 0.00 | 0.05 | 0.00 | 90 | 1013.4 |
| 20260506221523 | 12 | 73 | 0.0 | 0.0 | 0.00 | 0.05 | 0.00 | 90 | 1013.3 |
| 20260506221015 | 12 | 73 | 0.0 | 0.0 | 0.00 | 0.05 | 0.00 | 90 | 1013.2 |
| 20260506220509 | 12 | 73 | 0.0 | 0.0 | 0.00 | 0.05 | 0.00 | 90 | 1013.2 |
| 20260506215933 | 12 | 73 | 0.0 | 0.0 | 0.00 | 0.05 | 0.05 | 89 | 1013.2 |
| 20260506215420 | 12 | 73 | 0.0 | 0.0 | 0.00 | 0.05 | 0.05 | 89 | 1013.2 |
| 20260506214916 | 12 | 73 | 0.0 | 0.0 | 0.00 | 0.05 | 0.05 | 89 | 1013.3 |
| 20260506214411 | 12 | 73 | 0.0 | 0.0 | 0.03 | 0.05 | 0.05 | 89 | 1013.3 |
| 20260506213901 | 12 | 73 | 0.0 | 0.0 | 0.03 | 0.05 | 0.05 | 89 | 1013.1 |
| 20260506213321 | 12 | 73 | 0.0 | 0.0 | 0.03 | 0.05 | 0.05 | 89 | 1013.2 |
| 20260506212819 | 12 | 73 | 0.0 | 0.0 | 0.03 | 0.05 | 0.05 | 89 | 1013.1 |
| 20260506212319 | 12 | 73 | 0.0 | 0.0 | 0.03 | 0.05 | 0.05 | 88 | 1013.1 |
| 20260506212049 | 12 | 73 | 0.0 | 0.0 | 0.03 | 0.05 | 0.05 | 89 | 1013.1 |
| 20260506211317 | 12 | 73 | 0.0 | 0.0 | 0.03 | 0.05 | 0.05 | 88 | 1013.0 |
| 20260506210810 | 12 | 73 | 0.0 | 0.0 | 0.03 | 0.05 | 0.05 | 88 | 1013.0 |
| 20260506210217 | 12 | 73 | 0.0 | 0.0 | 0.03 | 0.05 | 0.05 | 88 | 1013.0 |
| 20260506205716 | 12 | 73 | 0.0 | 0.0 | 0.03 | 0.05 | 0.05 | 88 | 1013.0 |
| 20260506205219 | 12 | 73 | 0.0 | 0.0 | 0.03 | 0.05 | 0.05 | 88 | 1012.9 |
| 20260506204717 | 12 | 73 | 0.0 | 0.0 | 0.03 | 0.05 | 0.05 | 88 | 1013.0 |
| 20260506204215 | 12 | 73 | 0.0 | 0.0 | 0.00 | 0.05 | 0.05 | 87 | 1012.9 |
| 20260506203708 | 12 | 73 | 0.0 | 0.0 | 0.00 | 0.05 | 0.05 | 87 | 1012.8 |
| 20260506203703 | 12 | 73 | 0.0 | 0.0 | 0.00 | 0.05 | 0.05 | 87 | 1012.8 |
| 20260506202651 | 12 | 73 | 0.0 | 0.0 | 0.00 | 0.05 | 0.05 | 87 | 1012.8 |
| 20260506202139 | 12 | 73 | 0.0 | 0.0 | 0.00 | 0.05 | 0.05 | 87 | 1012.6 |
| 20260506201627 | 12 | 73 | 0.0 | 0.0 | 0.00 | 0.05 | 0.05 | 87 | 1012.7 |
| 20260506201359 | 12 | 73 | 0.0 | 0.0 | 0.00 | 0.05 | 0.05 | 86 | 1012.8 |
| 20260506200627 | 13 | 73 | 0.0 | 0.0 | 0.00 | 0.05 | 0.05 | 86 | 1012.6 |
| 20260506200127 | 13 | 73 | 0.0 | 0.0 | 0.00 | 0.05 | 0.05 | 87 | 1012.5 |
| 20260506195621 | 13 | 73 | 0.0 | 0.0 | 0.00 | 0.05 | 0.05 | 87 | 1012.5 |
| 20260506195113 | 13 | 73 | 0.0 | 0.0 | 0.00 | 0.05 | 0.05 | 87 | 1012.4 |
| 20260506194605 | 13 | 73 | 0.0 | 0.0 | 0.00 | 0.05 | 0.05 | 86 | 1012.3 |
| 20260506194101 | 13 | 73 | 0.0 | 0.0 | 0.00 | 0.05 | 0.05 | 86 | 1012.1 |
| 20260506193520 | 13 | 73 | 0.0 | 0.0 | 0.00 | 0.05 | 0.05 | 86 | 1012.1 |
| 20260506193019 | 13 | 73 | 0.0 | 0.0 | 0.00 | 0.05 | 0.05 | 86 | 1012.1 |
| 20260506192751 | 13 | 73 | 0.0 | 0.0 | 0.00 | 0.05 | 0.05 | 85 | 1012.0 |
| 20260506192020 | 13 | 73 | 0.0 | 0.0 | 0.00 | 0.05 | 0.05 | 85 | 1012.0 |
| 20260506191519 | 13 | 73 | 0.0 | 0.0 | 0.00 | 0.05 | 0.05 | 85 | 1012.0 |
| 20260506191244 | 13 | 73 | 0.0 | 0.0 | 0.00 | 0.05 | 0.05 | 84 | 1011.8 |
| 20260506190504 | 13 | 73 | 0.0 | 0.0 | 0.00 | 0.05 | 0.05 | 84 | 1011.7 |
| 20260506190215 | 13 | 73 | 0.0 | 0.0 | 0.00 | 0.05 | 0.05 | 84 | 1011.8 |
| 20260506185702 | 13 | 73 | 0.0 | 0.0 | 0.00 | 0.05 | 0.05 | 83 | 1011.8 |
| 20260506185151 | 13 | 73 | 0.0 | 0.0 | 0.00 | 0.05 | 0.05 | 83 | 1011.8 |
| 20260506184647 | 13 | 73 | 0.0 | 0.0 | 0.00 | 0.05 | 0.05 | 83 | 1011.7 |
| 20260506184146 | 13 | 73 | 0.0 | 0.0 | 0.00 | 0.05 | 0.05 | 83 | 1011.7 |
| 20260506183356 | 13 | 73 | 0.0 | 1.6 | 0.00 | 0.05 | 0.05 | 83 | 1011.4 |
| 20260506183350 | 13 | 73 | 0.0 | 0.0 | 0.00 | 0.05 | 0.05 | 83 | 1011.7 |
| 20260506182327 | 13 | 73 | 0.0 | 4.8 | 0.00 | 0.05 | 0.05 | 82 | 1011.5 |
| 20260506181828 | 13 | 73 | 0.0 | 3.2 | 0.00 | 0.05 | 0.05 | 82 | 1011.5 |
| 20260506181822 | 13 | 73 | 0.0 | 4.8 | 0.00 | 0.05 | 0.05 | 82 | 1011.4 |
| 20260506180817 | 13 | 73 | 0.0 | 6.4 | 0.00 | 0.05 | 0.05 | 81 | 1011.3 |
| 20260506180251 | 13 | 73 | 0.0 | 6.4 | 0.00 | 0.05 | 0.05 | 81 | 1011.2 |
| 20260506175721 | 13 | 73 | 0.0 | 6.4 | 0.00 | 0.05 | 0.05 | 81 | 1011.1 |
| 20260506175219 | 13 | 73 | 0.0 | 8.0 | 0.00 | 0.05 | 0.05 | 82 | 1011.2 |
| 20260506174719 | 13 | 73 | 0.0 | 8.0 | 0.00 | 0.05 | 0.05 | 81 | 1011.2 |
| 20260506174450 | 13 | 75 | 0.0 | 4.8 | 0.00 | 0.05 | 0.05 | 82 | 1011.1 |
| 20260506173715 | 13 | 75 | 0.0 | 4.8 | 0.00 | 0.05 | 0.05 | 82 | 1011.0 |
| 20260506173207 | 13 | 66 | 0.0 | 8.0 | 0.00 | 0.05 | 0.05 | 82 | 1011.1 |
| 20260506172659 | 13 | 67 | 0.0 | 6.4 | 0.00 | 0.05 | 0.05 | 82 | 1011.0 |
| 20260506172133 | 13 | 67 | 0.0 | 6.4 | 0.00 | 0.05 | 0.05 | 82 | 1011.1 |
| 20260506171615 | 13 | 67 | 0.0 | 8.0 | 0.00 | 0.05 | 0.05 | 82 | 1011.1 |
| 20260506171105 | 13 | 68 | 1.6 | 8.0 | 0.00 | 0.05 | 0.05 | 82 | 1011.0 |
| 20260506170559 | 13 | 64 | 1.6 | 8.0 | 0.00 | 0.05 | 0.05 | 81 | 1011.0 |
| 20260506170323 | 14 | 65 | 0.0 | 8.0 | 0.00 | 0.05 | 0.05 | 82 | 1011.0 |
| 20260506165543 | 14 | 49 | 1.6 | 9.7 | 0.00 | 0.05 | 0.05 | 81 | 1011.0 |
| 20260506165043 | 14 | 59 | 1.6 | 9.7 | 0.00 | 0.05 | 0.05 | 79 | 1010.9 |
| 20260506164541 | 14 | 66 | 1.6 | 6.4 | 0.00 | 0.05 | 0.05 | 80 | 1011.0 |
| 20260506164310 | 14 | 74 | 1.6 | 11.3 | 0.00 | 0.05 | 0.05 | 80 | 1010.9 |
| 20260506163539 | 14 | 70 | 1.6 | 11.3 | 0.00 | 0.05 | 0.05 | 80 | 1011.0 |
| 20260506163031 | 14 | 51 | 1.6 | 8.0 | 0.00 | 0.05 | 0.05 | 78 | 1010.9 |
| 20260506162802 | 14 | 118 | 3.2 | 9.7 | 0.00 | 0.05 | 0.05 | 79 | 1010.8 |
| 20260506162021 | 14 | 70 | 3.2 | 9.7 | 0.00 | 0.05 | 0.05 | 78 | 1010.7 |
| 20260506161521 | 14 | 57 | 3.2 | 11.3 | 0.00 | 0.05 | 0.05 | 80 | 1010.7 |
| 20260506161011 | 14 | 65 | 1.6 | 11.3 | 0.00 | 0.05 | 0.05 | 78 | 1010.9 |
| 20260506160511 | 15 | 87 | 1.6 | 9.7 | 0.00 | 0.05 | 0.05 | 78 | 1010.7 |
| 20260506160233 | 15 | 75 | 1.6 | 9.7 | 0.00 | 0.05 | 0.05 | 78 | 1010.7 |
| 20260506155503 | 15 | 101 | 1.6 | 11.3 | 0.00 | 0.05 | 0.05 | 78 | 1010.7 |
| 20260506154927 | 14 | 67 | 1.6 | 11.3 | 0.00 | 0.05 | 0.05 | 78 | 1010.7 |
| 20260506154419 | 14 | 112 | 1.6 | 11.3 | 0.00 | 0.05 | 0.05 | 81 | 1010.7 |
| 20260506153920 | 14 | 76 | 1.6 | 11.3 | 0.00 | 0.05 | 0.05 | 78 | 1010.6 |
| 20260506153419 | 14 | 71 | 1.6 | 9.7 | 0.00 | 0.08 | 0.05 | 80 | 1010.7 |
| 20260506152919 | 14 | 68 | 0.0 | 8.0 | 0.00 | 0.08 | 0.05 | 81 | 1010.7 |
| 20260506152420 | 14 | 128 | 0.0 | 6.4 | 0.00 | 0.08 | 0.05 | 83 | 1010.7 |
| 20260506151917 | 14 | 112 | 0.0 | 6.4 | 0.00 | 0.08 | 0.05 | 82 | 1010.8 |
| 20260506151418 | 14 | 65 | 0.0 | 8.0 | 0.00 | 0.08 | 0.05 | 82 | 1010.6 |
| 20260506150917 | 14 | 105 | 1.6 | 8.0 | 0.00 | 0.08 | 0.05 | 82 | 1010.6 |
| 20260506150412 | 13 | 90 | 1.6 | 6.4 | 0.00 | 0.08 | 0.05 | 82 | 1010.8 |
| 20260506145909 | 13 | 109 | 1.6 | 12.9 | 0.00 | 0.08 | 0.05 | 85 | 1010.7 |
| 20260506145409 | 13 | 121 | 1.6 | 16.1 | 0.00 | 0.08 | 0.05 | 84 | 1010.7 |
| 20260506144905 | 13 | 97 | 1.6 | 16.1 | 0.00 | 0.08 | 0.05 | 85 | 1010.7 |
| 20260506144400 | 13 | 71 | 1.6 | 8.0 | 0.00 | 0.08 | 0.05 | 86 | 1010.6 |
| 20260506143847 | 13 | 101 | 1.6 | 14.5 | 0.00 | 0.08 | 0.05 | 86 | 1010.6 |
| 20260506143340 | 13 | 82 | 3.2 | 17.7 | 0.00 | 0.08 | 0.05 | 85 | 1010.7 |
| 20260506142841 | 13 | 72 | 1.6 | 17.7 | 0.00 | 0.08 | 0.05 | 85 | 1010.7 |
| 20260506142325 | 13 | 67 | 3.2 | 16.1 | 0.00 | 0.08 | 0.05 | 86 | 1010.6 |
| 20260506141822 | 13 | 59 | 3.2 | 16.1 | 0.00 | 0.08 | 0.05 | 86 | 1010.5 |
| 20260506141317 | 13 | 71 | 0.0 | 9.7 | 0.00 | 0.08 | 0.05 | 89 | 1010.7 |
| 20260506140815 | 13 | 74 | 0.0 | 8.0 | 0.00 | 0.08 | 0.05 | 89 | 1010.5 |